Location: Kailua
(21.4020°N, 157.7390°W)
Time: 00:18:34
(UTC-10:00)

Daily predictions for brighter satellites

Satellite Brightness Start Highest point End
(mag) Time Altitude Azimuth Time Altitude Azimuth Time Altitude Azimuth
CZ-3 Stage 3 3.8 04:26:18 29° SE 04:26:18 29° SE 04:32:01 10° SE
CZ-4C R/B 3.2 04:49:10 34° NNE 04:49:10 34° NNE 04:52:13 10° NNE
H-2A R/B 4.2 04:46:27 51° WSW 04:47:17 52° SW 04:52:13 10° SE
ATLAS 2A CENTAUR R/B 4.3 04:52:35 24° SE 04:52:35 24° SE 04:53:36 10° ESE
Atlas Centaur 2 3.8 05:00:25 12° SSE 05:00:25 12° SSE 05:00:53 10° SSE
Meteor 1-26 Rocket 4.2 04:54:56 10° S 05:00:42 86° E 05:06:22 10° N
NATO 3D Rocket 4.2 05:03:43 55° W 05:05:31 76° SSW 05:11:38 10° ESE
Cosmos 1452 Rocket 4.2 05:11:55 39° NNW 05:11:55 39° NNW 05:15:25 10° N
SJ-6F 4.5 05:08:32 10° NNE 05:12:40 75° ESE 05:13:14 62° SSE
IUS-9 SRM-1 2.8 05:13:33 49° SE 05:13:33 49° SE 05:15:16 10° ESE
S3M 4.4 05:06:35 10° S 05:12:52 63° E 05:19:06 10° NNE
Cosmos 1553 Rocket 4.0 05:14:32 10° S 05:20:38 78° E 05:26:51 10° N
Cosmos 2221 Rocket 3.5 05:19:57 48° SSW 05:21:06 72° W 05:25:39 10° N
Palapa 6 Rocket 4.3 05:22:29 40° W 05:25:24 81° N 05:33:24 10° E
Gblst 52 Del rocket 4.3 05:22:37 23° SSW 05:26:08 75° SE 05:32:04 10° NE
Cosmos 1656 Rocket 4.1 05:33:17 36° W 05:33:41 37° WNW 05:38:54 10° N
SWIFT 4.5 05:32:23 13° SSW 05:34:41 20° SSE 05:37:48 10° ESE
Cosmos 407 Rocket 3.4 05:32:24 10° NNW 05:37:44 77° WSW 05:43:00 10° S
Cosmos 676 Rocket 4.2 05:36:26 10° N 05:41:45 75° ENE 05:47:03 10° SSE
Okean 1-7 3.3 05:40:26 10° SSW 05:44:28 40° W 05:48:29 10° NNW
ATLAS 3B R/B 2.9 05:40:39 10° SSW 05:48:16 76° WNW 05:55:46 10° NNE
GEOS 3 Rocket 3.5 05:43:19 10° SSE 05:48:21 63° WSW 05:53:24 10° NW
Cosmos 1140 Rocket 4.1 05:52:58 10° N 05:58:08 61° ENE 06:03:18 10° SSE
Cosmos 1833 4.1 05:53:04 10° NNW 05:58:37 67° WSW 06:04:09 10° S
Cosmos 1908 Rocket 4.5 05:57:17 10° NW 06:01:00 26° W 06:04:43 10° SSW
Cosmos 1782 2.9 05:58:31 10° SSW 06:02:20 50° W 06:06:12 10° N
Cosmos 1782 Rocket 3.9 06:02:27 10° NNW 06:06:39 42° W 06:10:49 10° SSW
SKYMED 2 3.5 06:02:35 10° S 06:06:55 83° W 06:11:15 10° NNW
Meteor 1-27 Rocket 4.2 06:01:59 10° S 06:07:37 67° E 06:13:22 10° NNE
CZ-2C R/B 3.5 06:09:25 10° NNE 06:14:17 52° E 06:19:15 10° S
Cosmos 1606 3.1 06:13:37 10° SSW 06:17:14 41° W 06:20:55 10° NNW
Cosmos 1745 Rocket 4.0 06:15:38 10° NNW 06:21:40 63° W 06:27:41 10° S
PAYLOAD A 3.8 06:17:02 10° N 06:21:49 80° WNW 06:26:46 10° SSW
Cosmos 1674 Rocket 3.5 06:17:50 10° S 06:22:11 77° W 06:26:35 10° N
Cosmos 1850 Rocket 4.5 06:18:42 10° N 06:23:59 67° ENE 06:29:12 10° SSE
Meteor 1-20 Rocket 4.2 06:20:58 10° NNW 06:26:31 62° W 06:31:57 10° S
Cosmos 1386 Rocket 4.4 06:21:52 10° N 06:27:56 77° W 06:34:06 10° S
Okean 2 Rocket 3.8 06:26:10 10° NNW 06:29:59 30° W 06:33:50 10° SSW
IDEFIX/ARIANE 42P 2.7 06:27:06 10° NNE 06:32:19 87° E 06:37:30 10° SSW
Ariane Rocket 3.5 06:30:29 10° N 06:35:09 38° WNW 06:39:47 10° SW
deb Centaur AC-2 4.2 06:30:56 10° WNW 06:35:27 71° NNE 06:39:44 10° ESE
SeaSat 1 3.6 06:31:44 10° NE 06:36:30 50° ESE 06:41:15 10° S
